Location: Stanford
(52.2833°N, 2.4333°W)
Time: 01:48:11
(UTC+00:00)

S3M - Pass Details

Date: 22 January 2021
Orbit: 949 x 1004 km, 83.0° (Epoch: 28 February)

Event Time Altitude Azimuth Distance (km) Brightness Sun altitude
Rises 18:54:32 0° 352° (N) 3,645 7.0 -20.3°
Reaches altitude 10° 18:57:14 10° 360° (N) 2,691 6.3 -20.7°
Maximum altitude 19:02:59 41° 70° (ENE) 1,357 4.3 -21.6°
Enters shadow 19:03:05 41° 72° (ENE) 1,357 4.3 -21.6°
